KA1WBH Weather Reports


Display with metric or nautical units.
time (UTC)temp
F
wind
direction
speed
MPH
gust
MPH
rain 1hr
in
rain 24hr
in
rain mn
in
humidity
%
barometer
mb
20190118212951 36 204 0.0 1.0 0.00 0.00 0.00 91 1016.5
20190118211951 36 204 0.0 0.0 0.00 0.00 0.00 91 1016.6
20190118210951 36 205 0.0 0.0 0.00 0.00 0.00 91 1016.4
20190118205951 37 205 0.0 0.0 0.00 0.00 0.00 90 1016.5
20190118204951 37 206 0.0 1.0 0.00 0.00 0.00 89 1016.5
20190118203951 37 226 0.0 4.0 0.00 0.00 0.00 89 1016.5
20190118202951 37 176 0.0 3.0 0.00 0.00 0.00 89 1016.7
20190118201951 38 245 0.0 5.0 0.00 0.00 0.00 89 1016.9
20190118200951 38 311 0.0 1.0 0.00 0.00 0.00 89 1017.1
20190118195951 37 317 0.0 1.0 0.00 0.00 0.00 89 1017.2
20190118194951 37 316 0.0 1.0 0.00 0.00 0.00 88 1017.2
20190118193951 38 306 0.0 2.0 0.00 0.00 0.00 88 1017.0
20190118192951 38 150 0.0 0.0 0.00 0.00 0.00 88 1017.0
20190118191951 38 110 0.0 0.0 0.00 0.00 0.00 88 1016.9
20190118190951 38 110 0.0 3.0 0.00 0.00 0.00 88 1016.6
20190118185951 38 110 0.0 5.0 0.00 0.00 0.00 88 1016.7
20190118184951 37 112 0.0 5.0 0.00 0.00 0.00 89 1016.7
20190118183951 37 100 0.0 6.0 0.00 0.00 0.00 89 1016.9
20190118182951 37 124 0.0 5.0 0.00 0.00 0.00 88 1017.3
20190118181951 38 124 3.0 6.0 0.00 0.00 0.00 88 1017.3
20190118180951 38 91 2.0 5.0 0.00 0.00 0.00 88 1017.5
20190118175952 37 86 0.0 5.0 0.00 0.00 0.00 90 1017.8
20190118174951 37 82 0.0 9.0 0.00 0.00 0.00 90 1017.8
20190118173951 37 109 0.0 6.0 0.00 0.00 0.00 91 1017.8
20190118172951 37 48 0.0 7.0 0.00 0.00 0.00 90 1018.1
20190118171951 37 79 5.0 6.0 0.00 0.00 0.00 90 1018.4
20190118170951 36 100 0.0 6.0 0.00 0.00 0.00 90 1018.4
20190118165951 37 95 2.0 6.0 0.00 0.00 0.00 90 1018.6
20190118164951 37 77 2.0 7.0 0.00 0.00 0.00 90 1019.0
20190118163951 37 87 0.0 4.0 0.00 0.00 0.00 90 1019.3
20190118162951 37 75 0.0 6.0 0.00 0.00 0.00 90 1019.4
20190118161951 36 96 0.0 9.0 0.00 0.00 0.00 91 1019.5
20190118160951 36 106 3.0 7.0 0.00 0.00 0.00 91 1019.7
20190118155951 36 104 5.0 10.0 0.00 0.00 0.00 91 1019.9
20190118154951 36 106 5.0 7.0 0.00 0.00 0.00 92 1020.1
20190118153951 35 121 0.0 6.0 0.00 0.00 0.00 93 1020.3
20190118152951 35 106 4.0 6.0 0.00 0.00 0.00 92 1020.4
20190118151951 35 100 0.0 7.0 0.00 0.00 0.00 93 1020.3
20190118150951 34 108 5.0 7.0 0.00 0.00 0.00 93 1020.2
20190118145951 34 100 0.0 9.0 0.00 0.00 0.00 93 1020.3
20190118144951 34 116 0.0 9.0 0.00 0.00 0.00 92 1020.2
20190118143951 34 121 0.0 9.0 0.00 0.00 0.00 92 1020.2
20190118142951 34 73 0.0 7.0 0.00 0.00 0.00 93 1020.1
20190118141951 34 82 5.0 9.0 0.00 0.00 0.00 92 1020.2
20190118140951 34 54 5.0 5.0 0.00 0.00 0.00 92 1020.4
20190118135951 33 93 0.0 6.0 0.00 0.00 0.00 91 1020.5
20190118134951 34 89 0.0 8.0 0.00 0.00 0.00 91 1020.6
20190118133951 34 98 0.0 6.0 0.00 0.00 0.00 90 1020.7
20190118132951 34 99 0.0 5.0 0.00 0.00 0.00 89 1020.6
20190118131951 33 100 0.0 5.0 0.00 0.00 0.00 89 1020.7
20190118130951 33 82 0.0 5.0 0.00 0.00 0.00 88 1020.6
20190118125951 33 98 4.0 7.0 0.00 0.00 0.00 87 1020.5
20190118124951 33 116 0.0 7.0 0.00 0.00 0.00 87 1020.4
20190118123951 33 108 3.0 7.0 0.00 0.00 0.00 86 1020.4
20190118122951 33 114 3.0 7.0 0.00 0.00 0.00 85 1020.4
20190118121951 33 103 5.0 7.0 0.00 0.00 0.00 84 1020.5
20190118120951 32 93 5.0 9.0 0.00 0.00 0.00 84 1020.7
20190118115951 32 97 2.0 7.0 0.00 0.00 0.00 83 1020.7
20190118114951 32 95 0.0 8.0 0.00 0.00 0.00 83 1021.0
20190118113951 32 99 0.0 6.0 0.00 0.00 0.00 82 1021.0
20190118112951 32 97 6.0 6.0 0.00 0.00 0.00 82 1021.0
20190118111951 32 103 1.0 6.0 0.00 0.00 0.00 82 1021.1
20190118110951 32 106 0.0 6.0 0.00 0.00 0.00 82 1021.0
20190118105951 32 73 4.0 8.0 0.00 0.00 0.00 82 1021.1
20190118104951 31 94 3.0 9.0 0.00 0.00 0.00 82 1021.0
20190118103951 31 96 4.0 7.0 0.00 0.00 0.00 83 1021.0
20190118102951 31 52 0.0 7.0 0.00 0.00 0.00 83 1021.0
20190118101951 30 86 0.0 7.0 0.00 0.00 0.00 83 1021.1
20190118100951 30 52 0.0 9.0 0.00 0.00 0.00 83 1021.3
20190118095951 30 75 0.0 10.0 0.00 0.00 0.00 82 1021.4
20190118094951 30 43 5.0 10.0 0.00 0.00 0.00 81 1021.3
20190118093951 30 71 0.0 9.0 0.00 0.00 0.00 81 1021.3
20190118092951 30 81 4.0 9.0 0.00 0.00 0.00 79 1021.7
20190118091951 29 38 4.0 6.0 0.00 0.00 0.00 78 1021.8
20190118090950 29 54 2.0 7.0 0.00 0.00 0.00 77 1022.0
20190118085950 29 59 1.0 7.0 0.00 0.00 0.00 76 1022.2
20190118084951 29 57 0.0 4.0 0.00 0.00 0.00 78 1022.5
20190118083951 29 48 0.0 6.0 0.00 0.00 0.00 77 1022.6
20190118082950 29 53 0.0 7.0 0.00 0.00 0.00 77 1022.6
20190118081950 28 58 0.0 6.0 0.00 0.00 0.00 77 1022.8
20190118080950 29 31 0.0 4.0 0.00 0.00 0.00 78 1023.3
20190118075950 29 58 0.0 4.0 0.00 0.00 0.00 77 1023.6
20190118074951 30 60 0.0 5.0 0.00 0.00 0.00 76 1023.9
20190118073951 30 61 0.0 4.0 0.00 0.00 0.00 76 1024.2
20190118072951 30 79 0.0 5.0 0.00 0.00 0.00 76 1024.3
20190118071950 30 85 0.0 5.0 0.00 0.00 0.00 76 1024.1
20190118070951 30 109 0.0 4.0 0.00 0.00 0.00 76 1024.3
20190118065951 30 87 0.0 7.0 0.00 0.00 0.00 76 1024.0
20190118064950 29 101 3.0 9.0 0.00 0.00 0.00 75 1023.9
20190118063951 29 78 3.0 10.0 0.00 0.00 0.00 75 1024.3
20190118062950 29 98 0.0 5.0 0.00 0.00 0.00 74 1024.7
20190118061951 29 98 1.0 9.0 0.00 0.00 0.00 75 1024.7
20190118060950 29 82 4.0 10.0 0.00 0.00 0.00 75 1024.5
20190118055950 29 75 2.0 10.0 0.00 0.00 0.00 75 1024.5
20190118054950 29 108 0.0 10.0 0.00 0.00 0.00 75 1024.5
20190118053951 29 88 0.0 11.0 0.00 0.00 0.00 74 1024.8
20190118052951 29 86 5.0 7.0 0.00 0.00 0.00 75 1025.1
20190118051950 29 64 4.0 10.0 0.00 0.00 0.00 74 1025.2
20190118050950 28 64 8.0 10.0 0.00 0.00 0.00 75 1025.2
20190118050021 28 75 3.0 7.0 0.00 0.00 0.00 75 1025.6
20190118044950 28 80 4.0 7.0 0.00 0.00 0.00 74 1026.0
20190118043951 28 106 0.0 6.0 0.00 0.00 0.00 74 1026.2
20190118042950 28 94 1.0 5.0 0.00 0.00 0.00 73 1026.5
20190118041951 28 92 3.0 4.0 0.00 0.00 0.00 73 1026.5
20190118040950 28 94 0.0 5.0 0.00 0.00 0.00 72 1026.7
20190118040020 28 92 0.0 6.0 0.00 0.00 0.00 71 1026.8
20190118034950 28 89 0.0 7.0 0.00 0.00 0.00 71 1026.8
20190118033950 28 104 0.0 5.0 0.00 0.00 0.00 70 1026.9
20190118032950 28 112 0.0 3.0 0.00 0.00 0.00 68 1026.9
20190118031950 28 81 0.0 5.0 0.00 0.00 0.00 66 1026.8
20190118030950 28 102 0.0 2.0 0.00 0.00 0.00 66 1026.9
20190118025950 28 101 0.0 4.0 0.00 0.00 0.00 65 1026.9
20190118024950 28 107 0.0 3.0 0.00 0.00 0.00 63 1026.9
20190118023950 28 110 0.0 4.0 0.00 0.00 0.00 63 1027.2
20190118022950 28 111 0.0 4.0 0.00 0.00 0.00 63 1027.2
20190118021950 28 121 0.0 3.0 0.00 0.00 0.00 61 1027.1
20190118020950 27 120 0.0 9.0 0.00 0.00 0.00 61 1027.0
20190118020020 27 107 2.0 3.0 0.00 0.00 0.00 64 1027.1
20190118014950 27 107 0.0 7.0 0.00 0.00 0.00 63 1027.0
20190118013950 27 110 1.0 6.0 0.00 0.00 0.00 64 1027.2
20190118012950 27 117 5.0 6.0 0.00 0.00 0.00 64 1027.3
20190118011950 27 122 0.0 8.0 0.00 0.00 0.00 64 1027.2
20190118010950 27 135 0.0 6.0 0.00 0.00 0.00 64 1027.4
20190118005950 27 108 0.0 5.0 0.00 0.00 0.00 63 1027.6
20190118004950 27 119 0.0 5.0 0.00 0.00 0.00 63 1027.6
20190118003950 27 125 0.0 5.0 0.00 0.00 0.00 63 1027.6
20190118002950 27 127 3.0 5.0 0.00 0.00 0.00 63 1027.6
20190118001950 27 136 1.0 6.0 0.00 0.00 0.00 62 1027.7
20190118000950 27 118 1.0 4.0 0.00 0.00 0.00 63 1027.8
20190117235950 27 110 1.0 9.0 0.00 0.00 0.00 61 1027.7
20190117234950 27 129 5.0 9.0 0.00 0.00 0.00 61 1027.4
20190117233950 27 117 6.0 9.0 0.00 0.00 0.00 59 1027.5
20190117232950 27 132 4.0 9.0 0.00 0.00 0.00 58 1027.2
20190117231951 27 123 3.0 5.0 0.00 0.00 0.00 57 1027.3
20190117230950 27 129 0.0 5.0 0.00 0.00 0.00 55 1027.4
20190117230020 27 144 0.0 4.0 0.00 0.00 0.00 50 1027.3
20190117224950 27 128 0.0 5.0 0.00 0.00 0.00 48 1027.2
20190117223950 27 148 0.0 1.0 0.00 0.00 0.00 37 1027.3
20190117222950 27 144 0.0 0.0 0.00 0.00 0.00 36 1027.3
20190117221950 27 144 0.0 1.0 0.00 0.00 0.00 35 1027.4
20190117220950 27 136 0.0 0.0 0.00 0.00 0.00 34 1027.4
20190117220020 27 125 0.0 0.0 0.00 0.00 0.00 34 1027.3
20190117214950 27 125 0.0 0.0 0.00 0.00 0.00 34 1027.2
20190117213950 27 125 0.0 0.0 0.00 0.00 0.00 33 1027.3